User: anonymous   Login
Location: Unspecified
(0.0000°N, 0.0000°E)
Time: 09:14:58
(UTC+00:00)
Language:

OBJECT G - Orbit

View from above orbital plane
View from above orbital plane
View from above satellite
View from above satellite

Ground track
Ground track

The orbit data is extracted from the following two-line orbital elements,

1 41936U 98067KY  17086.54614406 +.00051079 +00000-0 +60591-3 0  9991
2 41936 051.6437 083.5897 0009822 000.2343 359.8648 15.60633566010302
Epoch (UTC): 27 March 2017 13:06:26
Eccentricity: 0.0009822
inclination: 51.6437°
perigee height: 379 km
apogee height: 392 km
right ascension of ascending node: 83.5897°
argument of perigee: 0.2343°
revolutions per day: 15.60633566
mean anomaly at epoch: 359.8648°
orbit number at epoch: 1030

The dashed part of the orbit path shows where the satellite is in the earth's shadow,  

DLR